This is the latest recevied weather packets stored in our database for station/object OE2ATN. If no packets are shown the sender has not sent any weather packets the latest 10 day(s).
| Time | Temp. | Humidity | Pressure | Rain* | Wind** | Luminosity | Snow |
|---|---|---|---|---|---|---|---|
| 1778068526 | 20° C | 43% | 1012.1 hPa | 0 mm | - | - | - |
| 1778068227 | 20° C | 43% | 1012.2 hPa | 0 mm | - | - | - |
| 1778067926 | 20° C | 40% | 1012.2 hPa | 0 mm | - | - | - |
| 1778067627 | 20° C | 40% | 1012.2 hPa | 0 mm | - | - | - |
| 1778067326 | 19.44° C | 40% | 1012.3 hPa | 0 mm | - | - | - |
| 1778067027 | 20° C | 41% | 1012.3 hPa | 0 mm | - | - | - |
| 1778066727 | 20° C | 39% | 1012.4 hPa | 0 mm | - | - | - |
| 1778066425 | 20.56° C | 44% | 1012.5 hPa | 0 mm | - | - | - |
| 1778066125 | 20.56° C | 42% | 1012.5 hPa | 0 mm | - | - | - |
| 1778065825 | 20° C | 45% | 1012.5 hPa | 0 mm | - | - | - |
| 1778065526 | 19.44° C | 41% | 1012.6 hPa | 0 mm | - | - | - |
| 1778065226 | 19.44° C | 46% | 1012.8 hPa | 0 mm | - | - | - |
| 1778064927 | 19.44° C | 40% | 1012.9 hPa | 0 mm | - | - | - |
| 1778064626 | 19.44° C | 42% | 1012.9 hPa | 0 mm | - | - | - |
| 1778064326 | 20° C | 40% | 1012.8 hPa | 0 mm | - | - | - |
| 1778064026 | 20° C | 41% | 1013 hPa | 0 mm | - | - | - |
| 1778063725 | 20° C | 41% | 1013.1 hPa | 0 mm | - | - | - |
| 1778063425 | 20° C | 44% | 1013.2 hPa | 0 mm | - | - | - |
| 1778063124 | 19.44° C | 43% | 1013.3 hPa | 0 mm | - | - | - |
| 1778062825 | 19.44° C | 43% | 1013.3 hPa | 0 mm | - | - | - |
| 1778062525 | 19.44° C | 42% | 1013.5 hPa | 0 mm | - | - | - |
| 1778062224 | 19.44° C | 41% | 1013.6 hPa | 0 mm | - | - | - |
| 1778061925 | 20° C | 41% | 1013.6 hPa | 0 mm | - | - | - |
| 1778061626 | 19.44° C | 40% | 1013.5 hPa | 0 mm | - | - | - |
| 1778061323 | 19.44° C | 41% | 1013.6 hPa | 0 mm | - | - | - |
* Rain latest hour (hover to see other rain measurements)
** Current wind speed in m/s (hover to see current wind gust speed)